Location: Unspecified
(0.0000°N, 0.0000°E)
Time: 03:21:45
(UTC+00:00)

LightSail 2 - Pass Details

Date: 17 November 2019
Orbit: 701 x 726 km, 24.0° (Epoch: 11 November)

Event Time Altitude Azimuth Distance (km) Brightness Sun altitude
Rises 18:49:39 0° 223° (SW) 3,080 9.6 -15.3°
Reaches altitude 10° 18:52:34 10° 208° (SSW) 2,158 8.3 -15.9°
Maximum altitude 18:56:30 22° 157° (SSE) 1,496 6.8 -16.9°
Enters shadow 18:58:51 16° 121° (ESE) 1,763 6.8 -17.4°
